Location: Asheville, NC
(35.6000°N, 82.5500°W)
Time: 01:57:11
(UTC-05:00)

KKS-1 - Pass Details

Date: 17 February 2018
Orbit: 638 x 650 km, 98.3° (Epoch: 20 February)

Event Time Altitude Azimuth Distance (km) Brightness Sun altitude
Rises 06:22:53 0° 207° (SSW) 2,928 ? -11.2°
Reaches altitude 10° 06:25:54 10° 229° (SW) 2,026 ? -10.6°
Maximum altitude 06:28:31 16° 266° (W) 1,695 ? -10.1°
Drops below altitude 10° 06:31:10 10° 303° (WNW) 2,039 ? -9.5°
Enters shadow 06:32:06 - 312° (NW) 2,282 ? -9.3°
